,,,PA_Meas_PMT16A,,PR_Meas_QMR101_102,,RH_Meas_QMH101,,SR_Meas_QMS101,,TA_Meas_QMH101,,GenWind,,GenWind,
date,time,status,PA,status,PR,status,RH,status,SR,status,TA,status,DirAvg,status,SpdAvg,
2011-05-24, 00:00:04,VALID,1000.67,VALID,0,VALID,93.5849,VALID,0,VALID,24.1287,VALID,122,VALID,0.594531,
2011-05-24, 00:01:04,VALID,1000.67,VALID,0,VALID,93.5773,VALID,0,VALID,24.15,VALID,122,VALID,0.350391,
2011-05-24, 00:02:04,VALID,1000.69,VALID,0,VALID,93.5697,VALID,0,VALID,24.1287,VALID,121,VALID,0.164063,
2011-05-24, 00:03:04,VALID,1000.72,VALID,0,VALID,93.5544,VALID,0,VALID,24.1287,VALID,98,VALID,0.526172,
2011-05-24, 00:04:04,VALID,1000.71,VALID,0,VALID,93.5544,VALID,0,VALID,24.15,VALID,98,VALID,0.40625,
2011-05-24, 00:05:04,VALID,1000.72,VALID,0,VALID,93.5468,VALID,0,VALID,24.1305,VALID,98,VALID,0.585156,
2011-05-24, 00:06:04,VALID,1000.7,VALID,0,VALID,93.5239,VALID,0,VALID,24.1287,VALID,98,VALID,0,
2011-05-24, 00:07:04,VALID,1000.71,VALID,0,VALID,93.5163,VALID,0,VALID,24.15,VALID,98,VALID,0,
2011-05-24, 00:08:04,VALID,1000.67,VALID,0,VALID,93.5086,VALID,0,VALID,24.1696,VALID,98,VALID,0,
2011-05-24, 00:09:04,VALID,1000.66,VALID,0,VALID,93.501,VALID,0,VALID,24.1677,VALID,98,VALID,0,
2011-05-24, 00:10:04,VALID,1000.65,VALID,0,VALID,93.4934,VALID,0,VALID,24.1677,VALID,98,VALID,0,
2011-05-24, 00:11:04,VALID,1000.61,VALID,0,VALID,93.4628,VALID,0,VALID,24.1891,VALID,98,VALID,0,
2011-05-24, 00:12:04,VALID,1000.59,VALID,0,VALID,93.4476,VALID,0,VALID,24.2281,VALID,98,VALID,0,
2011-05-24, 00:13:04,VALID,1000.57,VALID,0,VALID,93.4476,VALID,0,VALID,24.2086,VALID,98,VALID,0,
2011-05-24, 00:14:04,VALID,1000.57,VALID,0,VALID,93.4247,VALID,0,VALID,24.2281,VALID,98,VALID,0,
2011-05-24, 00:15:04,VALID,1000.57,VALID,0,VALID,93.4171,VALID,0,VALID,24.2263,VALID,98,VALID,0,
2011-05-24, 00:16:04,VALID,1000.56,VALID,0,VALID,93.3942,VALID,0,VALID,24.2263,VALID,98,VALID,0,
2011-05-24, 00:17:04,VALID,1000.52,VALID,0,VALID,93.3637,VALID,0,VALID,24.2263,VALID,98,VALID,0,
2011-05-24, 00:18:04,VALID,1000.54,VALID,0,VALID,93.356,VALID,0,VALID,24.2263,VALID,98,VALID,0,
2011-05-24, 00:19:04,VALID,1000.48,VALID,0,VALID,93.3331,VALID,0,VALID,24.2263,VALID,98,VALID,0,
2011-05-24, 00:20:04,VALID,1000.51,VALID,0,VALID,93.3484,VALID,0,VALID,24.2458,VALID,98,VALID,0,
2011-05-24, 00:21:04,VALID,1000.47,VALID,0,VALID,93.3255,VALID,0,VALID,24.2653,VALID,82,VALID,0,
2011-05-24, 00:22:04,VALID,1000.45,VALID,0,VALID,93.295,VALID,0,VALID,24.2653,VALID,81,VALID,0,
2011-05-24, 00:23:04,VALID,1000.42,VALID,0,VALID,93.295,VALID,0,VALID,24.2653,VALID,81,VALID,0,
2011-05-24, 00:24:04,VALID,1000.39,VALID,0,VALID,93.2874,VALID,0,VALID,24.3043,VALID,75,VALID,0,
2011-05-24, 00:25:04,VALID,1000.37,VALID,0,VALID,93.2645,VALID,0,VALID,24.2848,VALID,76,VALID,0,
2011-05-24, 00:26:04,VALID,1000.37,VALID,0,VALID,93.2568,VALID,0,VALID,24.3062,VALID,63,VALID,0,
2011-05-24, 00:27:04,VALID,1000.35,VALID,0,VALID,93.2416,VALID,0,VALID,24.3043,VALID,60,VALID,0.932813,
2011-05-24, 00:28:04,VALID,1000.35,VALID,0,VALID,93.2187,VALID,0,VALID,24.3043,VALID,65,VALID,1.1957,
2011-05-24, 00:29:04,VALID,1000.36,VALID,0,VALID,93.1729,VALID,0,VALID,24.3062,VALID,62,VALID,0.888281,
2011-05-24, 00:30:04,VALID,1000.36,VALID,0,VALID,93.1271,VALID,0,VALID,24.3062,VALID,58,VALID,0.965234,
2011-05-24, 00:31:04,VALID,1000.34,VALID,0,VALID,93.0966,VALID,0,VALID,24.3062,VALID,54,VALID,0.8,
2011-05-24, 00:32:04,VALID,1000.33,VALID,0,VALID,93.0814,VALID,0,VALID,24.3043,VALID,55,VALID,0.627734,
2011-05-24, 00:33:04,VALID,1000.3,VALID,0,VALID,93.0585,VALID,0,VALID,24.3257,VALID,55,VALID,0.810156,
2011-05-24, 00:34:04,VALID,1000.27,VALID,0,VALID,93.0661,VALID,0,VALID,24.2848,VALID,55,VALID,0.430859,
2011-05-24, 00:35:04,VALID,1000.24,VALID,0,VALID,93.028,VALID,0,VALID,24.3257,VALID,77,VALID,0.728125,
2011-05-24, 00:36:04,VALID,1000.2,VALID,0,VALID,93.028,VALID,0,VALID,24.3257,VALID,96,VALID,0.870703,
2011-05-24, 00:37:04,VALID,1000.18,VALID,0,VALID,92.9822,VALID,0,VALID,24.2848,VALID,96,VALID,0.976563,
2011-05-24, 00:38:04,VALID,1000.13,VALID,0,VALID,92.9745,VALID,0,VALID,24.2848,VALID,103,VALID,0.948438,
2011-05-24, 00:39:04,VALID,1000.09,VALID,0,VALID,92.9364,VALID,0,VALID,24.3062,VALID,104,VALID,0.797266,
2011-05-24, 00:40:04,VALID,1000.07,VALID,0,VALID,92.9211,VALID,0,VALID,24.2653,VALID,104,VALID,0.705859,
2011-05-24, 00:41:04,VALID,1000.04,VALID,0,VALID,92.883,VALID,0,VALID,24.2866,VALID,115,VALID,0.913672,
2011-05-24, 00:42:04,VALID,999.991,VALID,0,VALID,92.883,VALID,0,VALID,24.2653,VALID,115,VALID,0.760938,
2011-05-24, 00:43:04,VALID,999.958,VALID,0,VALID,92.8525,VALID,0,VALID,24.2653,VALID,115,VALID,0.795703,
2011-05-24, 00:44:04,VALID,999.955,VALID,0,VALID,92.8601,VALID,0,VALID,24.2671,VALID,124,VALID,1.06484,
2011-05-24, 00:45:04,VALID,999.974,VALID,0,VALID,92.8372,VALID,0,VALID,24.2671,VALID,123,VALID,0.944531,
2011-05-24, 00:46:04,VALID,999.958,VALID,0,VALID,92.8601,VALID,0,VALID,24.2671,VALID,128,VALID,0.921094,
2011-05-24, 00:47:04,VALID,999.935,VALID,0,VALID,92.8372,VALID,0,VALID,24.2458,VALID,117,VALID,1.21055,
2011-05-24, 00:48:04,VALID,999.948,VALID,0,VALID,92.8372,VALID,0,VALID,24.2263,VALID,120,VALID,0.985547,
2011-05-24, 00:49:04,VALID,999.923,VALID,0,VALID,92.822,VALID,0,VALID,24.2458,VALID,126,VALID,1.11758,
2011-05-24, 00:50:04,VALID,999.911,VALID,0,VALID,92.822,VALID,0,VALID,24.2263,VALID,128,VALID,1.14688,
2011-05-24, 00:51:04,VALID,999.899,VALID,0,VALID,92.7914,VALID,0,VALID,24.2263,VALID,126,VALID,1.62148,
2011-05-24, 00:52:04,VALID,999.906,VALID,0,VALID,92.7533,VALID,0,VALID,24.2067,VALID,126,VALID,1.59609,
2011-05-24, 00:53:04,VALID,999.889,VALID,0,VALID,92.7609,VALID,0,VALID,24.2476,VALID,122,VALID,1.27344,
2011-05-24, 00:54:04,VALID,999.897,VALID,0,VALID,92.738,VALID,0,VALID,24.2263,VALID,114,VALID,1.46992,
2011-05-24, 00:55:04,VALID,999.862,VALID,0,VALID,92.7228,VALID,0,VALID,24.2476,VALID,122,VALID,1.17773,
2011-05-24, 00:56:04,VALID,999.844,VALID,0,VALID,92.7075,VALID,0,VALID,24.2263,VALID,117,VALID,1.11953,
2011-05-24, 00:57:04,VALID,999.789,VALID,0,VALID,92.7151,VALID,0,VALID,24.2263,VALID,109,VALID,1.06172,
2011-05-24, 00:58:04,VALID,999.8,VALID,0,VALID,92.7151,VALID,0,VALID,24.2263,VALID,109,VALID,0.955078,
2011-05-24, 00:59:04,VALID,999.738,VALID,0,VALID,92.7304,VALID,0,VALID,24.2458,VALID,109,VALID,0.679297,
2011-05-24, 01:00:04,VALID,999.717,VALID,0,VALID,92.7075,VALID,0,VALID,24.2476,VALID,112,VALID,1.2832,
2011-05-24, 01:01:04,VALID,999.709,VALID,0,VALID,92.7151,VALID,0,VALID,24.2458,VALID,110,VALID,1.10742,
2011-05-24, 01:02:04,VALID,999.62,VALID,0,VALID,92.6923,VALID,0,VALID,24.2458,VALID,112,VALID,1.06211,
2011-05-24, 01:03:04,VALID,999.618,VALID,0,VALID,92.6923,VALID,0,VALID,24.2458,VALID,116,VALID,1.1957,
2011-05-24, 01:04:04,VALID,999.556,VALID,0,VALID,92.677,VALID,0,VALID,24.2263,VALID,132,VALID,1.11836,
2011-05-24, 01:05:04,VALID,999.533,VALID,0,VALID,92.677,VALID,0,VALID,24.2653,VALID,128,VALID,1.00664,
2011-05-24, 01:06:04,VALID,999.548,VALID,0,VALID,92.6465,VALID,0,VALID,24.2671,VALID,121,VALID,1.00156,
2011-05-24, 01:07:04,VALID,999.547,VALID,0,VALID,92.6388,VALID,0,VALID,24.2458,VALID,137,VALID,1.13945,
2011-05-24, 01:08:04,VALID,999.52,VALID,0,VALID,92.6312,VALID,0,VALID,24.2458,VALID,141,VALID,0.578906,
2011-05-24, 01:09:04,VALID,999.473,VALID,0,VALID,92.6388,VALID,0,VALID,24.2263,VALID,141,VALID,0,
2011-05-24, 01:10:04,VALID,999.461,VALID,0,VALID,92.6388,VALID,0,VALID,24.2263,VALID,147,VALID,0.237891,
2011-05-24, 01:11:04,VALID,999.461,VALID,0,VALID,92.616,VALID,0,VALID,24.2458,VALID,146,VALID,0.0988281,
2011-05-24, 01:12:04,VALID,999.429,VALID,0,VALID,92.6236,VALID,0,VALID,24.2263,VALID,146,VALID,0.04375,
2011-05-24, 01:13:04,VALID,999.422,VALID,0,VALID,92.6007,VALID,0,VALID,24.2263,VALID,129,VALID,0.480469,
2011-05-24, 01:14:04,VALID,999.386,VALID,0,VALID,92.6083,VALID,0,VALID,24.2263,VALID,129,VALID,0.862891,
2011-05-24, 01:15:04,VALID,999.355,VALID,0,VALID,92.5549,VALID,0,VALID,24.2067,VALID,114,VALID,0.665234,
2011-05-24, 01:16:04,VALID,999.363,VALID,0,VALID,92.5244,VALID,0,VALID,24.2067,VALID,112,VALID,0.614844,
2011-05-24, 01:17:04,VALID,999.3,VALID,0,VALID,92.5015,VALID,0.112286,VALID,24.2067,VALID,112,VALID,0.566797,
2011-05-24, 01:18:04,VALID,999.292,VALID,0,VALID,92.4786,VALID,0,VALID,24.2281,VALID,128,VALID,0.707812,
2011-05-24, 01:19:04,VALID,999.305,VALID,0,VALID,92.471,VALID,0,VALID,24.2281,VALID,128,VALID,0.573047,
2011-05-24, 01:20:04,VALID,999.28,VALID,0,VALID,92.471,VALID,0,VALID,24.2067,VALID,136,VALID,1.48789,
2011-05-24, 01:21:04,VALID,999.272,VALID,0,VALID,92.4328,VALID,0.112286,VALID,24.2067,VALID,135,VALID,0.998438,
2011-05-24, 01:22:04,VALID,999.244,VALID,0,VALID,92.4405,VALID,0,VALID,24.2281,VALID,152,VALID,1.0293,
2011-05-24, 01:23:04,VALID,999.212,VALID,0,VALID,92.4405,VALID,0,VALID,24.2067,VALID,131,VALID,1.19844,
2011-05-24, 01:24:04,VALID,999.227,VALID,0,VALID,92.41,VALID,0,VALID,24.2067,VALID,136,VALID,1.24453,
2011-05-24, 01:25:04,VALID,999.236,VALID,0,VALID,92.3718,VALID,0,VALID,24.2086,VALID,129,VALID,1.17266,
2011-05-24, 01:26:04,VALID,999.199,VALID,0,VALID,92.3413,VALID,0,VALID,24.1872,VALID,138,VALID,1.23008,
2011-05-24, 01:27:04,VALID,999.203,VALID,0,VALID,92.3337,VALID,0,VALID,24.2086,VALID,147,VALID,1.0793,
2011-05-24, 01:28:04,VALID,999.204,VALID,0,VALID,92.3108,VALID,0,VALID,24.2086,VALID,135,VALID,1.14023,
2011-05-24, 01:29:04,VALID,999.216,VALID,0,VALID,92.2726,VALID,0,VALID,24.2086,VALID,139,VALID,0.975781,
2011-05-24, 01:30:04,VALID,999.179,VALID,0,VALID,92.2421,VALID,0,VALID,24.1872,VALID,140,VALID,0.819922,
2011-05-24, 01:31:04,VALID,999.196,VALID,0,VALID,92.2421,VALID,0.112286,VALID,24.2086,VALID,146,VALID,0.868359,
2011-05-24, 01:32:04,VALID,999.166,VALID,0,VALID,92.2574,VALID,0,VALID,24.1872,VALID,148,VALID,1.00195,
2011-05-24, 01:33:04,VALID,999.16,VALID,0,VALID,92.2497,VALID,0,VALID,24.1872,VALID,159,VALID,0.937109,
2011-05-24, 01:34:04,VALID,999.15,VALID,0,VALID,92.2192,VALID,0,VALID,24.1872,VALID,155,VALID,0.928516,
2011-05-24, 01:35:04,VALID,999.136,VALID,0,VALID,92.2268,VALID,0,VALID,24.1677,VALID,149,VALID,1.00859,
2011-05-24, 01:36:04,VALID,999.095,VALID,0,VALID,92.1887,VALID,0,VALID,24.1677,VALID,135,VALID,0.872656,
2011-05-24, 01:37:04,VALID,999.091,VALID,0,VALID,92.1353,VALID,0,VALID,24.1677,VALID,139,VALID,0.838672,
2011-05-24, 01:38:04,VALID,999.109,VALID,0,VALID,92.0819,VALID,0,VALID,24.1696,VALID,122,VALID,1.06992,
2011-05-24, 01:39:04,VALID,999.112,VALID,0,VALID,92.0285,VALID,0,VALID,24.1696,VALID,124,VALID,1.62188,
2011-05-24, 01:40:04,VALID,999.118,VALID,0,VALID,92.0056,VALID,0,VALID,24.1677,VALID,123,VALID,1.47539,
2011-05-24, 01:41:04,VALID,999.122,VALID,0,VALID,91.9064,VALID,0.112286,VALID,24.1872,VALID,127,VALID,1.31133,
2011-05-24, 01:42:04,VALID,999.119,VALID,0,VALID,91.7614,VALID,0,VALID,24.2067,VALID,126,VALID,0.4625,
2011-05-24, 01:43:04,VALID,999.123,VALID,0,VALID,91.6623,VALID,0,VALID,24.2067,VALID,126,VALID,0.480078,
2011-05-24, 01:44:04,VALID,999.137,VALID,0,VALID,91.5783,VALID,0,VALID,24.2281,VALID,126,VALID,0.171484,
2011-05-24, 01:45:04,VALID,999.129,VALID,0,VALID,91.4791,VALID,0,VALID,24.2281,VALID,126,VALID,0,
2011-05-24, 01:46:04,VALID,999.143,VALID,0,VALID,91.4868,VALID,0,VALID,24.2086,VALID,126,VALID,0.311328,
2011-05-24, 01:47:04,VALID,999.132,VALID,0,VALID,91.5326,VALID,0,VALID,24.2086,VALID,347,VALID,0.716797,
2011-05-24, 01:48:04,VALID,999.139,VALID,0,VALID,91.5936,VALID,0,VALID,24.1677,VALID,346,VALID,0.928516,
2011-05-24, 01:49:04,VALID,999.099,VALID,0,VALID,91.7004,VALID,0,VALID,24.1482,VALID,346,VALID,0.864844,
2011-05-24, 01:50:04,VALID,999.098,VALID,0,VALID,91.7843,VALID,0,VALID,24.1696,VALID,346,VALID,0.689062,
2011-05-24, 01:51:04,VALID,999.096,VALID,0,VALID,91.8454,VALID,0,VALID,24.1287,VALID,346,VALID,0.407031,
2011-05-24, 01:52:04,VALID,999.069,VALID,0,VALID,91.9293,VALID,0.112286,VALID,24.1287,VALID,346,VALID,0.00195313,
2011-05-24, 01:53:04,VALID,999.062,VALID,0,VALID,91.9674,VALID,0,VALID,24.111,VALID,346,VALID,0,
2011-05-24, 01:54:04,VALID,999.101,VALID,0,VALID,92.0132,VALID,0,VALID,24.111,VALID,346,VALID,0,
2011-05-24, 01:55:04,VALID,999.1,VALID,0,VALID,92.0285,VALID,0.112286,VALID,24.0701,VALID,346,VALID,0,
2011-05-24, 01:56:04,VALID,999.125,VALID,0,VALID,92.0437,VALID,0,VALID,24.0506,VALID,346,VALID,0,
2011-05-24, 01:57:04,VALID,999.111,VALID,0,VALID,92.0437,VALID,0,VALID,24.072,VALID,346,VALID,0,
2011-05-24, 01:58:04,VALID,999.092,VALID,0,VALID,92.1124,VALID,0,VALID,24.0506,VALID,5,VALID,0.952734,
2011-05-24, 01:59:04,VALID,999.101,VALID,0,VALID,92.1353,VALID,0.112286,VALID,24.0915,VALID,22,VALID,0.784375,
2011-05-24, 02:00:04,VALID,999.08,VALID,0,VALID,92.204,VALID,0,VALID,24.0915,VALID,22,VALID,0.604297,
2011-05-24, 02:01:04,VALID,999.046,VALID,0,VALID,92.2497,VALID,0.112286,VALID,24.0897,VALID,22,VALID,0.729297,
2011-05-24, 02:02:04,VALID,999.024,VALID,0,VALID,92.2726,VALID,0,VALID,24.0701,VALID,18,VALID,1.19883,
2011-05-24, 02:03:04,VALID,999.002,VALID,0,VALID,92.3413,VALID,0,VALID,24.111,VALID,13,VALID,1.34687,
2011-05-24, 02:04:04,VALID,998.976,VALID,0,VALID,92.41,VALID,0,VALID,24.111,VALID,12,VALID,1.02578,
2011-05-24, 02:05:04,VALID,998.979,VALID,0,VALID,92.471,VALID,0,VALID,24.1287,VALID,17,VALID,1.18281,
2011-05-24, 02:06:04,VALID,998.943,VALID,0,VALID,92.5244,VALID,0.112286,VALID,24.1092,VALID,20,VALID,1.10977,
2011-05-24, 02:07:04,VALID,998.945,VALID,0,VALID,92.532,VALID,0,VALID,24.1305,VALID,30,VALID,0.814453,
2011-05-24, 02:08:04,VALID,998.921,VALID,0,VALID,92.5702,VALID,0,VALID,24.111,VALID,29,VALID,0.6875,
2011-05-24, 02:09:04,VALID,998.969,VALID,0,VALID,92.5778,VALID,0.112286,VALID,24.111,VALID,360,VALID,0.624609,
2011-05-24, 02:10:04,VALID,999.004,VALID,0,VALID,92.5854,VALID,0,VALID,24.0915,VALID,360,VALID,0.424219,
2011-05-24, 02:11:04,VALID,999.039,VALID,0,VALID,92.6083,VALID,0,VALID,24.0701,VALID,360,VALID,0.104687,
2011-05-24, 02:12:04,VALID,999.061,VALID,0,VALID,92.6312,VALID,0,VALID,24.0915,VALID,360,VALID,0.0578125,
2011-05-24, 02:13:04,VALID,999.112,VALID,0,VALID,92.6465,VALID,0,VALID,24.0897,VALID,360,VALID,0,
2011-05-24, 02:14:04,VALID,999.137,VALID,0,VALID,92.6465,VALID,0,VALID,24.0897,VALID,360,VALID,0,
2011-05-24, 02:15:04,VALID,999.12,VALID,0,VALID,92.6617,VALID,0,VALID,24.111,VALID,360,VALID,0,
2011-05-24, 02:16:04,VALID,999.138,VALID,0,VALID,92.6694,VALID,0,VALID,24.0897,VALID,360,VALID,0,
2011-05-24, 02:17:04,VALID,999.157,VALID,0,VALID,92.6846,VALID,0,VALID,24.0897,VALID,360,VALID,0,
2011-05-24, 02:18:04,VALID,999.133,VALID,0,VALID,92.6999,VALID,0,VALID,24.1305,VALID,360,VALID,0,
2011-05-24, 02:19:04,VALID,999.138,VALID,0,VALID,92.6999,VALID,0,VALID,24.15,VALID,360,VALID,0,
2011-05-24, 02:20:04,VALID,999.125,VALID,0,VALID,92.6923,VALID,0,VALID,24.1305,VALID,360,VALID,0,
2011-05-24, 02:21:04,VALID,999.101,VALID,0,VALID,92.7228,VALID,0,VALID,24.1696,VALID,360,VALID,0.539453,
2011-05-24, 02:22:04,VALID,999.093,VALID,0,VALID,92.7075,VALID,0,VALID,24.1696,VALID,98,VALID,0.692578,
2011-05-24, 02:23:04,VALID,999.114,VALID,0,VALID,92.6999,VALID,0,VALID,24.1891,VALID,99,VALID,0.529297,
2011-05-24, 02:24:04,VALID,999.112,VALID,0,VALID,92.7151,VALID,0,VALID,24.2281,VALID,98,VALID,0.833203,
2011-05-24, 02:25:04,VALID,999.116,VALID,0,VALID,92.6694,VALID,0,VALID,24.2086,VALID,97,VALID,0.706641,
2011-05-24, 02:26:04,VALID,999.08,VALID,0,VALID,92.6236,VALID,0,VALID,24.2476,VALID,97,VALID,0,
2011-05-24, 02:27:04,VALID,999.077,VALID,0,VALID,92.616,VALID,0,VALID,24.2476,VALID,97,VALID,0,
2011-05-24, 02:28:04,VALID,999.053,VALID,0,VALID,92.5549,VALID,0,VALID,24.2476,VALID,97,VALID,0,
2011-05-24, 02:29:04,VALID,999.029,VALID,0,VALID,92.4863,VALID,0,VALID,24.2281,VALID,97,VALID,0,
2011-05-24, 02:30:04,VALID,999.008,VALID,0,VALID,92.4557,VALID,0,VALID,24.2476,VALID,97,VALID,0,
2011-05-24, 02:31:04,VALID,998.99,VALID,0,VALID,92.3871,VALID,0,VALID,24.2671,VALID,177,VALID,0.805078,
2011-05-24, 02:32:04,VALID,998.972,VALID,0,VALID,92.3489,VALID,0,VALID,24.2866,VALID,177,VALID,0.668359,
2011-05-24, 02:33:04,VALID,998.964,VALID,0,VALID,92.265,VALID,0,VALID,24.3062,VALID,195,VALID,0.941406,
2011-05-24, 02:34:04,VALID,998.936,VALID,0,VALID,92.1658,VALID,0,VALID,24.3043,VALID,197,VALID,0.955469,
2011-05-24, 02:35:04,VALID,998.929,VALID,0,VALID,92.12,VALID,0,VALID,24.3647,VALID,216,VALID,1.22187,
2011-05-24, 02:36:04,VALID,998.926,VALID,0,VALID,92.0285,VALID,0,VALID,24.3433,VALID,215,VALID,1.16562,
2011-05-24, 02:37:04,VALID,998.899,VALID,0,VALID,91.998,VALID,0,VALID,24.3452,VALID,242,VALID,1.20156,
2011-05-24, 02:38:04,VALID,998.865,VALID,0,VALID,92.0132,VALID,0,VALID,24.3238,VALID,245,VALID,0.601953,
2011-05-24, 02:39:04,VALID,998.863,VALID,0,VALID,92.0285,VALID,0,VALID,24.3257,VALID,221,VALID,0.838281,
2011-05-24, 02:40:04,VALID,998.838,VALID,0,VALID,92.059,VALID,0,VALID,24.3062,VALID,221,VALID,0.79375,
2011-05-24, 02:41:04,VALID,998.829,VALID,0,VALID,92.0895,VALID,0,VALID,24.2866,VALID,205,VALID,1.15703,
2011-05-24, 02:42:04,VALID,998.847,VALID,0,VALID,92.0895,VALID,0,VALID,24.3257,VALID,204,VALID,1.3668,
2011-05-24, 02:43:04,VALID,998.812,VALID,0,VALID,92.0895,VALID,0,VALID,24.3452,VALID,190,VALID,1.26797,
2011-05-24, 02:44:04,VALID,998.887,VALID,0,VALID,92.1124,VALID,0,VALID,24.3452,VALID,190,VALID,0.888672,
2011-05-24, 02:45:04,VALID,998.899,VALID,0,VALID,92.0895,VALID,0,VALID,24.3629,VALID,190,VALID,0.983203,
2011-05-24, 02:46:04,VALID,998.926,VALID,0,VALID,92.0209,VALID,0,VALID,24.4037,VALID,200,VALID,1.15859,
2011-05-24, 02:47:04,VALID,998.933,VALID,0,VALID,91.9369,VALID,0,VALID,24.4428,VALID,200,VALID,0.855859,
2011-05-24, 02:48:04,VALID,998.933,VALID,0,VALID,91.8301,VALID,0,VALID,24.4214,VALID,228,VALID,0.746484,
2011-05-24, 02:49:04,VALID,998.937,VALID,0,VALID,91.6088,VALID,0,VALID,24.4623,VALID,225,VALID,0.557031,
2011-05-24, 02:50:04,VALID,998.912,VALID,0,VALID,91.4715,VALID,0,VALID,24.4409,VALID,225,VALID,0.510938,
2011-05-24, 02:51:04,VALID,998.958,VALID,0,VALID,91.3647,VALID,0,VALID,24.4604,VALID,225,VALID,0,
2011-05-24, 02:52:04,VALID,998.92,VALID,0,VALID,91.3113,VALID,0.112286,VALID,24.48,VALID,210,VALID,0.689062,
2011-05-24, 02:53:04,VALID,998.936,VALID,0,VALID,91.2731,VALID,0,VALID,24.48,VALID,198,VALID,0.902734,
2011-05-24, 02:54:04,VALID,998.886,VALID,0,VALID,91.2426,VALID,0.112286,VALID,24.5209,VALID,191,VALID,0.832812,
2011-05-24, 02:55:04,VALID,998.881,VALID,0,VALID,91.174,VALID,0,VALID,24.5013,VALID,186,VALID,0.942187,
2011-05-24, 02:56:04,VALID,998.905,VALID,0,VALID,91.0977,VALID,0,VALID,24.48,VALID,180,VALID,0.814844,
2011-05-24, 02:57:04,VALID,998.871,VALID,0,VALID,91.1129,VALID,0,VALID,24.5013,VALID,179,VALID,0.502344,
2011-05-24, 02:58:04,VALID,998.855,VALID,0,VALID,91.1816,VALID,0,VALID,24.48,VALID,179,VALID,0.607813,
2011-05-24, 02:59:04,VALID,998.846,VALID,0,VALID,91.2579,VALID,0,VALID,24.5209,VALID,179,VALID,0.216797,
2011-05-24, 03:00:04,VALID,998.838,VALID,0,VALID,91.3342,VALID,0,VALID,24.5013,VALID,179,VALID,0,
2011-05-24, 03:01:04,VALID,998.842,VALID,0,VALID,91.4105,VALID,0,VALID,24.4604,VALID,179,VALID,0,
2011-05-24, 03:02:04,VALID,998.82,VALID,0,VALID,91.4639,VALID,0,VALID,24.4818,VALID,179,VALID,0,
2011-05-24, 03:03:04,VALID,998.8,VALID,0,VALID,91.5402,VALID,0,VALID,24.4623,VALID,179,VALID,0,
2011-05-24, 03:04:04,VALID,998.771,VALID,0,VALID,91.5936,VALID,0,VALID,24.4214,VALID,179,VALID,0,
2011-05-24, 03:05:04,VALID,998.781,VALID,0,VALID,91.6317,VALID,0,VALID,24.4019,VALID,179,VALID,0,
2011-05-24, 03:06:04,VALID,998.762,VALID,0,VALID,91.6928,VALID,0,VALID,24.3824,VALID,179,VALID,0,
2011-05-24, 03:07:04,VALID,998.785,VALID,0,VALID,91.7385,VALID,0,VALID,24.3842,VALID,179,VALID,0,
2011-05-24, 03:08:04,VALID,998.773,VALID,0,VALID,91.8225,VALID,0,VALID,24.3629,VALID,179,VALID,0,
2011-05-24, 03:09:04,VALID,998.771,VALID,0,VALID,91.8377,VALID,0,VALID,24.3647,VALID,179,VALID,0,
2011-05-24, 03:10:04,VALID,998.807,VALID,0,VALID,91.9064,VALID,0,VALID,24.3647,VALID,179,VALID,0,
2011-05-24, 03:11:04,VALID,998.818,VALID,0,VALID,91.998,VALID,0,VALID,24.3452,VALID,179,VALID,0,
2011-05-24, 03:12:04,VALID,998.82,VALID,0,VALID,92.0666,VALID,0,VALID,24.3238,VALID,179,VALID,0,
2011-05-24, 03:13:04,VALID,998.824,VALID,0,VALID,92.1353,VALID,0,VALID,24.3062,VALID,179,VALID,0,
2011-05-24, 03:14:04,VALID,998.841,VALID,0,VALID,92.2116,VALID,0,VALID,24.2653,VALID,179,VALID,0,
2011-05-24, 03:15:04,VALID,998.861,VALID,0,VALID,92.2574,VALID,0,VALID,24.2458,VALID,179,VALID,0,
2011-05-24, 03:16:04,VALID,998.871,VALID,0,VALID,92.2879,VALID,0,VALID,24.2476,VALID,179,VALID,0,
2011-05-24, 03:17:04,VALID,998.868,VALID,0,VALID,92.326,VALID,0,VALID,24.2281,VALID,179,VALID,0.427734,
2011-05-24, 03:18:04,VALID,998.872,VALID,0,VALID,92.4023,VALID,0,VALID,24.2086,VALID,153,VALID,0.614062,
2011-05-24, 03:19:04,VALID,998.885,VALID,0,VALID,92.4405,VALID,0,VALID,24.1872,VALID,111,VALID,0.413281,
2011-05-24, 03:20:04,VALID,998.887,VALID,0,VALID,92.5091,VALID,0,VALID,24.1872,VALID,87,VALID,0.867969,
2011-05-24, 03:21:04,VALID,998.965,VALID,0,VALID,92.532,VALID,0,VALID,24.1872,VALID,87,VALID,0.589063,
2011-05-24, 03:22:04,VALID,998.958,VALID,0,VALID,92.5702,VALID,0,VALID,24.2067,VALID,87,VALID,0,
2011-05-24, 03:23:04,VALID,998.999,VALID,0,VALID,92.6007,VALID,0,VALID,24.2086,VALID,87,VALID,0,
2011-05-24, 03:24:04,VALID,999.028,VALID,0,VALID,92.6312,VALID,0,VALID,24.1891,VALID,87,VALID,0,
2011-05-24, 03:25:04,VALID,999.05,VALID,0,VALID,92.6236,VALID,0,VALID,24.1891,VALID,87,VALID,0,
2011-05-24, 03:26:04,VALID,999.07,VALID,0,VALID,92.6465,VALID,0.112286,VALID,24.1696,VALID,87,VALID,0,
2011-05-24, 03:27:04,VALID,999.096,VALID,0,VALID,92.677,VALID,0,VALID,24.1482,VALID,87,VALID,0,
2011-05-24, 03:28:04,VALID,999.118,VALID,0,VALID,92.7228,VALID,0,VALID,24.1287,VALID,87,VALID,0,
2011-05-24, 03:29:04,VALID,999.099,VALID,0,VALID,92.7228,VALID,0,VALID,24.15,VALID,87,VALID,0,
2011-05-24, 03:30:04,VALID,999.156,VALID,0,VALID,92.7609,VALID,0,VALID,24.15,VALID,87,VALID,0,
2011-05-24, 03:31:04,VALID,999.144,VALID,0,VALID,92.7762,VALID,0,VALID,24.1482,VALID,87,VALID,0,
2011-05-24, 03:32:04,VALID,999.153,VALID,0,VALID,92.8143,VALID,0,VALID,24.1287,VALID,87,VALID,0,
2011-05-24, 03:33:04,VALID,999.174,VALID,0,VALID,92.8372,VALID,0,VALID,24.1482,VALID,87,VALID,0,
2011-05-24, 03:34:04,VALID,999.156,VALID,0,VALID,92.8372,VALID,0,VALID,24.1287,VALID,87,VALID,0,
2011-05-24, 03:35:04,VALID,999.126,VALID,0,VALID,92.8754,VALID,0,VALID,24.1482,VALID,87,VALID,0,
2011-05-24, 03:36:04,VALID,999.16,VALID,0,VALID,92.8983,VALID,0,VALID,24.15,VALID,87,VALID,0,
2011-05-24, 03:37:04,VALID,999.172,VALID,0,VALID,92.8983,VALID,0,VALID,24.1696,VALID,87,VALID,0,
2011-05-24, 03:38:04,VALID,999.191,VALID,0,VALID,92.9288,VALID,0,VALID,24.1696,VALID,87,VALID,0,
2011-05-24, 03:39:04,VALID,999.24,VALID,0,VALID,92.9593,VALID,0,VALID,24.1482,VALID,87,VALID,0,
2011-05-24, 03:40:04,VALID,999.236,VALID,0,VALID,92.9745,VALID,0,VALID,24.1696,VALID,87,VALID,0,
2011-05-24, 03:41:04,VALID,999.254,VALID,0,VALID,92.9669,VALID,0,VALID,24.1482,VALID,87,VALID,0,
2011-05-24, 03:42:04,VALID,999.261,VALID,0,VALID,92.9669,VALID,0,VALID,24.1482,VALID,87,VALID,0,
2011-05-24, 03:43:04,VALID,999.3,VALID,0,VALID,92.9745,VALID,0,VALID,24.1696,VALID,87,VALID,0,
2011-05-24, 03:44:04,VALID,999.307,VALID,0,VALID,92.9517,VALID,0,VALID,24.1696,VALID,121,VALID,0.263281,
2011-05-24, 03:45:04,VALID,999.342,VALID,0,VALID,92.9669,VALID,0,VALID,24.1482,VALID,138,VALID,0.830078,
2011-05-24, 03:46:04,VALID,999.314,VALID,0,VALID,92.9669,VALID,0,VALID,24.1677,VALID,138,VALID,0.689062,
2011-05-24, 03:47:04,VALID,999.317,VALID,0,VALID,92.9517,VALID,0,VALID,24.1677,VALID,138,VALID,0.734766,
2011-05-24, 03:48:04,VALID,999.344,VALID,0,VALID,92.9669,VALID,0,VALID,24.1677,VALID,138,VALID,0.503125,
2011-05-24, 03:49:04,VALID,999.325,VALID,0,VALID,92.944,VALID,0,VALID,24.2086,VALID,138,VALID,0.748828,
2011-05-24, 03:50:04,VALID,999.404,VALID,0,VALID,92.9593,VALID,0.112286,VALID,24.1872,VALID,138,VALID,0.585547,